This is the latest recevied weather packets stored in our database for station/object KC8UZG. If no packets are shown the sender has not sent any weather packets the latest 10 day(s).
| Time | Temp. | Humidity | Pressure | Rain* | Wind** | Luminosity | Snow |
|---|---|---|---|---|---|---|---|
| 1778076338 | 10° C | 86% | 1011.3 hPa | 0 mm | - | 46 W/m² | - |
| 1778075716 | 9.44° C | 86% | 1011.4 hPa | 0 mm | - | 89 W/m² | - |
| 1778075122 | 8.89° C | 87% | 1011.4 hPa | 0 mm | - | 99 W/m² | - |
| 1778074529 | 8.89° C | 90% | 1011.1 hPa | 0 mm | - | 89 W/m² | - |
| 1778073934 | 8.33° C | 93% | 1010.9 hPa | 0 mm | - | 87 W/m² | - |
| 1778073341 | 8.33° C | 94% | 1010.9 hPa | 0 mm | - | 73 W/m² | - |
| 1778072719 | 7.78° C | 95% | 1010.8 hPa | 0 mm | - | 61 W/m² | - |
| 1778072125 | 7.78° C | 97% | - | 0 mm | - | 52 W/m² | - |
| 1778071531 | 7.22° C | 98% | 1010.8 hPa | 0 mm | - | 44 W/m² | - |
| 1778070937 | 7.22° C | 99% | 1010.8 hPa | 0 mm | - | 37 W/m² | - |
| 1778070316 | 6.67° C | 99% | 1010.4 hPa | 0 mm | - | 35 W/m² | - |
| 1778069722 | 6.67° C | 99% | 1010.4 hPa | 0 mm | - | 24 W/m² | - |
| 1778069129 | 6.67° C | 99% | 1010.2 hPa | 0 mm | - | 14 W/m² | - |
| 1778068534 | 6.67° C | 99% | 1009.7 hPa | 0 mm | - | 10 W/m² | - |
| 1778067940 | 6.11° C | 99% | - | 0 mm | - | 8 W/m² | - |
| 1778067319 | 6.11° C | 99% | - | 0 mm | - | 6 W/m² | - |
| 1778066725 | 6.11° C | 99% | 1009 hPa | 0 mm | - | 4 W/m² | - |
| 1778066131 | 6.11° C | 99% | - | 0 mm | - | 10 W/m² | - |
| 1778065538 | 6.11° C | 99% | - | 0 mm | - | 0 W/m² | - |
| 1778064916 | 6.11° C | 99% | - | 0 mm | - | 0 W/m² | - |
| 1778064322 | 6.11° C | 99% | - | 0 mm | - | 0 W/m² | - |
| 1778063729 | 6.11° C | 99% | - | 0 mm | - | 0 W/m² | - |
| 1778063134 | 6.11° C | 99% | - | 0 mm | - | 0 W/m² | - |
| 1778062540 | 6.11° C | 99% | - | 0 mm | - | 0 W/m² | - |
| 1778061919 | 6.11° C | 99% | - | 0 mm | - | 0 W/m² | - |
* Rain latest hour (hover to see other rain measurements)
** Current wind speed in m/s (hover to see current wind gust speed)